TIANWANG 1C (TW-1C)
1 40926U 15051B   19279.90368376  .00012416  00000-0  16837-3 0  9995
2 40926  97.1240 326.0029 0006543 335.6887 145.8497 15.57773685227302
TIANWANG 1B (TW-1B)
1 40927U 15051C   19279.84320231  .00011429  00000-0  16529-3 0  9998
2 40927  97.1269 325.0872 0007004 349.4224  97.4723 15.56050028227133
TIANWANG 1A (TW-1A)
1 40928U 15051D   19279.81709499  .00002831  00000-0  69823-4 0  9996
2 40928  97.1374 308.6681 0012167  39.7593  45.5861 15.41296200226134
LAPAN A2
1 40931U 15052B   19279.84946749  .00000573  00000-0 -92439-5 0  9997
2 40931   6.0000 351.0058 0012920 275.1529  84.8353 14.76613436217576
LQSAT
1 40958U 15057A   19279.80741264 -.00000003 +00000-0 +71588-5 0  9992
2 40958 097.8884 345.9712 0016904 246.0361 113.9077 14.73090790215023
CHUBUSAT 2
1 41338U 16012B   19279.87727346 +.00000315 +00000-0 +17829-4 0  9991
2 41338 031.0024 164.5104 0013679 115.2659 244.9395 15.00188530199474
CHUBUSAT 3
1 41339U 16012C   19279.83395514  .00000375  00000-0  22388-4 0  9998
2 41339  31.0105 162.7389 0013380 122.3244 237.8683 15.00361688199465
OUFTI-1
1 41458U 16025C   19279.88887225 +.00000757 +00000-0 +42641-4 0  9992
2 41458 098.1002 012.3362 0165456 346.9942 012.7040 15.06061013189156
E-STAR-2
1 41459U 16025D   19279.86560145  .00001361  00000-0  73413-4 0  9993
2 41459  98.1006  11.9109 0166488 348.4367  11.3029 15.05688845189125
AAUSAT 4
1 41460U 16025E   19279.83379315  .00000970  00000-0  52538-4 0  9999
2 41460  98.0949  13.4013 0156462 340.2461  19.2687 15.07661745189263
NUSAT 1
1 41557U 16033B   19279.91627029 +.00001095 +00000-0 +43504-4 0  9994
2 41557 097.4150 006.7714 0012112 268.0258 091.9594 15.27417948186913
BEESAT 4
1 41619U 16040W   19279.74702432 +.00001139 +00000-0 +50843-4 0  9997
2 41619 097.3564 339.8657 0011246 005.5009 354.6350 15.23344373170617
PRATHAM
1 41783U 16059A   19279.71278083 +.00000055 +00000-0 +19884-4 0  9992
2 41783 098.0558 336.7982 0034336 039.9634 320.4086 14.63012378161636
ALSAT 1N
1 41789U 16059G   19279.88082518 +.00000085 +00000-0 +25074-4 0  9993
2 41789 098.0590 339.2004 0028876 028.8871 331.3915 14.64265743161777
NAYIF 1
1 42017U 17008BX  19279.75547005 +.00001290 +00000-0 +53317-4 0  9996
2 42017 097.3928 345.6682 0007486 132.0143 228.1734 15.25764274146705
MAX VALIER SAT
1 42778U 17036P   19279.71166504 +.00000786 +00000-0 +37201-4 0  9991
2 42778 097.3429 334.8931 0012061 190.3298 169.7693 15.22165171126974
